Year,Month,Day,Hour,Minute,Value (Times are PST for temperature in C)
2007,07,25,00,00,13.40
2007,07,25,00,01,13.40
2007,07,25,00,02,13.40
2007,07,25,00,03,13.40
2007,07,25,00,04,13.40
2007,07,25,00,05,13.30
2007,07,25,00,06,13.30
2007,07,25,00,07,13.30
2007,07,25,00,08,13.30
2007,07,25,00,09,13.30
2007,07,25,00,10,13.20
2007,07,25,00,11,13.20
2007,07,25,00,12,13.20
2007,07,25,00,13,13.20
2007,07,25,01,02,12.30
2007,07,25,01,03,12.30
2007,07,25,01,04,12.30
2007,07,25,01,05,12.30
2007,07,25,01,06,12.30
2007,07,25,01,07,12.30
2007,07,25,01,08,12.30
2007,07,25,01,09,12.20
2007,07,25,01,10,12.20
2007,07,25,01,11,12.20
2007,07,25,01,12,12.20
2007,07,25,01,13,12.20
2007,07,25,01,14,12.20
2007,07,25,01,15,12.20
2007,07,25,01,16,12.20
2007,07,25,01,17,12.20
2007,07,25,01,18,12.20
2007,07,25,01,19,12.20
2007,07,25,01,20,12.20
2007,07,25,01,21,12.10
2007,07,25,01,22,12.10
2007,07,25,01,23,12.10
2007,07,25,01,24,12.10
2007,07,25,01,25,12.10
2007,07,25,01,26,12.10
2007,07,25,01,27,12.10
2007,07,25,01,28,12.10
2007,07,25,01,29,12.10
2007,07,25,01,30,12.10
2007,07,25,01,31,12.00
2007,07,25,01,32,12.00
2007,07,25,01,33,11.90
2007,07,25,01,34,11.90
2007,07,25,01,35,11.90
2007,07,25,01,36,11.90
2007,07,25,01,37,11.90
2007,07,25,01,38,11.80
2007,07,25,01,39,11.80
2007,07,25,01,40,11.80
2007,07,25,01,41,11.80
2007,07,25,01,42,11.80
2007,07,25,01,43,11.80
2007,07,25,01,44,11.80
2007,07,25,01,45,11.80
2007,07,25,01,46,11.80
2007,07,25,01,47,11.80
2007,07,25,01,48,11.80
2007,07,25,01,49,11.80
2007,07,25,01,50,11.80
2007,07,25,01,51,11.80
2007,07,25,01,52,11.80
2007,07,25,01,53,11.70
2007,07,25,01,54,11.70
2007,07,25,01,55,11.70
2007,07,25,01,56,11.70
2007,07,25,01,57,11.70
2007,07,25,01,58,11.70
2007,07,25,01,59,11.70
2007,07,25,02,00,11.70
2007,07,25,02,01,11.70
2007,07,25,02,02,11.70
2007,07,25,02,03,11.70
2007,07,25,02,04,11.70
2007,07,25,02,05,11.60
2007,07,25,02,06,11.60
2007,07,25,02,07,11.60
2007,07,25,02,08,11.60
2007,07,25,02,09,11.60
2007,07,25,02,10,11.60
2007,07,25,02,11,11.60
2007,07,25,02,12,11.60
2007,07,25,02,13,11.60
2007,07,25,02,14,11.60
2007,07,25,02,15,11.60
2007,07,25,02,16,11.60
2007,07,25,02,17,11.60
2007,07,25,02,18,11.60
2007,07,25,02,19,11.60
2007,07,25,02,20,11.60
2007,07,25,02,21,11.60
2007,07,25,02,22,11.50
2007,07,25,02,23,11.50
2007,07,25,02,24,11.50
2007,07,25,02,25,11.40
2007,07,25,02,26,11.40
2007,07,25,02,27,11.40
2007,07,25,02,28,11.40
2007,07,25,02,29,11.40
2007,07,25,02,30,11.40
2007,07,25,02,31,11.40
2007,07,25,02,32,11.40
2007,07,25,02,33,11.40
2007,07,25,02,34,11.40
2007,07,25,02,35,11.40
2007,07,25,02,36,11.30
2007,07,25,02,37,11.30
2007,07,25,02,38,11.30
2007,07,25,02,39,11.30
2007,07,25,02,40,11.30
2007,07,25,02,41,11.30
2007,07,25,02,42,11.30
2007,07,25,02,43,11.20
2007,07,25,02,44,11.20
2007,07,25,02,45,11.20
2007,07,25,02,46,11.20
2007,07,25,02,47,11.20
2007,07,25,02,48,11.20
2007,07,25,02,49,11.20
2007,07,25,02,50,11.20
2007,07,25,02,51,11.20
2007,07,25,02,52,11.20
2007,07,25,02,53,11.20
2007,07,25,02,54,11.20
2007,07,25,02,55,11.20
2007,07,25,02,56,11.20
2007,07,25,02,57,11.20
2007,07,25,02,58,11.20
2007,07,25,02,59,11.10
2007,07,25,03,00,11.10
2007,07,25,03,01,11.10
2007,07,25,03,02,11.10
2007,07,25,03,03,11.10
2007,07,25,03,04,11.10
2007,07,25,03,05,11.10
2007,07,25,03,06,11.10
2007,07,25,03,07,11.10
2007,07,25,03,08,11.10
2007,07,25,03,09,11.10
2007,07,25,03,10,11.10
2007,07,25,03,11,11.10
2007,07,25,03,12,11.10
2007,07,25,03,13,11.10
2007,07,25,03,14,11.10
2007,07,25,03,15,11.10
2007,07,25,03,16,11.10
2007,07,25,03,17,11.10
2007,07,25,03,18,11.10
2007,07,25,03,19,11.10
2007,07,25,03,20,11.10
2007,07,25,03,21,11.10
2007,07,25,03,22,11.10
2007,07,25,03,23,11.10
2007,07,25,03,24,11.10
2007,07,25,03,25,11.10
2007,07,25,03,26,11.10
2007,07,25,03,27,11.10
2007,07,25,03,28,11.10
2007,07,25,03,29,11.10
2007,07,25,03,30,11.10
2007,07,25,03,31,11.10
2007,07,25,03,32,11.10
2007,07,25,03,33,11.10
2007,07,25,03,34,11.10
2007,07,25,03,35,11.10
2007,07,25,03,36,11.10
2007,07,25,03,37,11.10
2007,07,25,03,38,11.10
2007,07,25,03,39,11.10
2007,07,25,03,40,11.10
2007,07,25,03,41,11.10
2007,07,25,03,42,11.10
2007,07,25,03,43,11.10
2007,07,25,03,44,11.10
2007,07,25,03,45,11.10
2007,07,25,03,46,11.10
2007,07,25,03,47,11.00
2007,07,25,03,48,11.00
2007,07,25,03,49,11.00
2007,07,25,03,50,11.00
2007,07,25,03,51,11.00
2007,07,25,03,52,10.90
2007,07,25,03,53,10.90
2007,07,25,03,54,10.90
2007,07,25,03,55,10.90
2007,07,25,03,56,10.90
2007,07,25,03,57,10.90
2007,07,25,03,58,10.80
2007,07,25,03,59,10.80
2007,07,25,04,00,10.80
2007,07,25,04,01,10.80
2007,07,25,04,02,10.80
2007,07,25,04,03,10.80
2007,07,25,04,04,10.80
2007,07,25,04,05,10.80
2007,07,25,04,06,10.80
2007,07,25,04,07,10.80
2007,07,25,04,08,10.80
2007,07,25,04,09,10.80
2007,07,25,04,10,10.80
2007,07,25,04,11,10.80
2007,07,25,04,12,10.80
2007,07,25,04,13,10.80
2007,07,25,04,14,10.80
2007,07,25,04,15,10.80
2007,07,25,04,16,10.80
2007,07,25,04,17,10.70
2007,07,25,04,18,10.70
2007,07,25,04,19,10.70
2007,07,25,04,20,10.70
2007,07,25,04,21,10.70
2007,07,25,04,22,10.70
2007,07,25,04,23,10.70
2007,07,25,04,24,10.70
2007,07,25,04,25,10.70
2007,07,25,04,26,10.60
2007,07,25,04,27,10.60
2007,07,25,04,28,10.60
2007,07,25,04,29,10.60
2007,07,25,04,30,10.60
2007,07,25,04,31,10.60
2007,07,25,04,32,10.60
2007,07,25,04,33,10.60
2007,07,25,04,34,10.60
2007,07,25,04,35,10.50
2007,07,25,04,36,10.60
2007,07,25,04,37,10.60
2007,07,25,04,38,10.60
2007,07,25,04,39,10.60
2007,07,25,04,40,10.60
2007,07,25,04,41,10.50
2007,07,25,04,42,10.50
2007,07,25,04,43,10.50
2007,07,25,04,44,10.50
2007,07,25,04,45,10.50
2007,07,25,04,46,10.50
2007,07,25,04,47,10.50
2007,07,25,04,48,10.40
2007,07,25,04,49,10.40
2007,07,25,04,50,10.40
2007,07,25,04,51,10.40
2007,07,25,04,52,10.40
2007,07,25,04,53,10.40
2007,07,25,04,54,10.40
2007,07,25,04,55,10.40
2007,07,25,04,56,10.40
2007,07,25,04,57,10.40
2007,07,25,04,58,10.30
2007,07,25,04,59,10.30
2007,07,25,05,00,10.30
2007,07,25,05,01,10.30
2007,07,25,05,02,10.30
2007,07,25,05,03,10.30
2007,07,25,05,04,10.30
2007,07,25,05,05,10.30
2007,07,25,05,06,10.30
2007,07,25,05,07,10.20
2007,07,25,05,08,10.20
2007,07,25,05,09,10.20
2007,07,25,05,10,10.20
2007,07,25,05,11,10.20
2007,07,25,05,12,10.20
2007,07,25,05,13,10.10
2007,07,25,05,14,10.10
2007,07,25,05,15,10.10
2007,07,25,05,16,10.10
2007,07,25,05,17,10.10
2007,07,25,05,18,10.10
2007,07,25,05,19,10.10
2007,07,25,05,20,10.10
2007,07,25,05,21,10.10
2007,07,25,05,22,10.10
2007,07,25,05,23,10.10
2007,07,25,05,24,10.10
2007,07,25,05,25,10.10
2007,07,25,05,26,10.00
2007,07,25,05,27,10.00
2007,07,25,05,28,10.00
2007,07,25,05,29,10.00
2007,07,25,05,30,10.00
2007,07,25,05,31,10.00
2007,07,25,05,32,10.00
2007,07,25,05,33,10.00
2007,07,25,05,34,10.00
2007,07,25,05,35,10.00
2007,07,25,05,36,9.90
2007,07,25,05,37,9.90
2007,07,25,05,38,9.90
2007,07,25,05,39,9.90
2007,07,25,05,40,9.90
2007,07,25,05,41,9.90
2007,07,25,05,42,9.90
2007,07,25,05,43,9.90
2007,07,25,05,44,9.90
2007,07,25,05,45,9.90
2007,07,25,05,46,9.90
2007,07,25,05,47,9.90
2007,07,25,05,48,9.90
2007,07,25,05,49,9.90
2007,07,25,05,50,9.90
2007,07,25,05,51,9.90
2007,07,25,05,52,9.90
2007,07,25,05,53,9.90
2007,07,25,05,54,9.90
2007,07,25,05,55,9.90
2007,07,25,05,56,9.90
2007,07,25,05,57,9.90
2007,07,25,05,58,9.90
2007,07,25,05,59,9.90
2007,07,25,06,00,9.90
2007,07,25,06,01,9.90
2007,07,25,06,02,9.90
2007,07,25,06,03,10.00
2007,07,25,06,04,10.00
2007,07,25,06,05,10.00
2007,07,25,06,06,10.00
2007,07,25,06,07,10.00
2007,07,25,06,08,10.00
2007,07,25,06,09,10.00
2007,07,25,06,10,10.00
2007,07,25,06,11,10.00
2007,07,25,06,12,10.00
2007,07,25,06,13,10.00
2007,07,25,06,14,10.00
2007,07,25,06,15,10.00
2007,07,25,06,16,10.00
2007,07,25,06,17,10.00
2007,07,25,06,18,10.00
2007,07,25,06,19,10.00
2007,07,25,06,20,10.10
2007,07,25,06,21,10.10
2007,07,25,06,22,10.10
2007,07,25,06,23,10.10
2007,07,25,06,24,10.10
2007,07,25,06,25,10.10
2007,07,25,06,26,10.10
2007,07,25,06,27,10.10
2007,07,25,06,28,10.10
2007,07,25,06,29,10.10
2007,07,25,06,30,10.10
2007,07,25,06,31,10.10
2007,07,25,06,32,10.10
2007,07,25,06,33,10.10
2007,07,25,06,34,10.10
2007,07,25,06,35,10.10
2007,07,25,06,36,10.10
2007,07,25,06,37,10.10
2007,07,25,06,38,10.10
2007,07,25,06,39,10.10
2007,07,25,06,40,10.10
2007,07,25,06,41,10.10
2007,07,25,06,42,10.20
2007,07,25,06,43,10.20
2007,07,25,06,44,10.20
2007,07,25,06,45,10.20
2007,07,25,06,46,10.20
2007,07,25,06,47,10.30
2007,07,25,06,48,10.30
2007,07,25,06,49,10.30
2007,07,25,06,50,10.30
2007,07,25,06,51,10.30
2007,07,25,06,52,10.40
2007,07,25,06,53,10.40
2007,07,25,06,54,10.40
2007,07,25,06,55,10.50
2007,07,25,06,56,10.50
2007,07,25,06,57,10.60
2007,07,25,06,58,10.60
2007,07,25,06,59,10.60
2007,07,25,07,00,10.70
2007,07,25,07,01,10.70
2007,07,25,07,02,10.80
2007,07,25,07,03,10.80
2007,07,25,07,04,10.90
2007,07,25,07,05,11.00
2007,07,25,07,06,11.20
2007,07,25,07,07,11.30
2007,07,25,07,08,11.40
2007,07,25,07,09,11.50
2007,07,25,07,10,11.60
2007,07,25,07,11,11.70
2007,07,25,07,12,11.70
2007,07,25,07,13,11.80
2007,07,25,07,14,11.80
2007,07,25,07,15,11.80
2007,07,25,07,16,11.80
2007,07,25,07,17,11.80
2007,07,25,07,18,11.90
2007,07,25,07,19,11.90
2007,07,25,07,20,11.90
2007,07,25,07,21,12.00
2007,07,25,07,22,12.10
2007,07,25,07,23,12.10
2007,07,25,07,24,12.20
2007,07,25,07,25,12.20
2007,07,25,07,26,12.30
2007,07,25,07,27,12.40
2007,07,25,07,28,12.50
2007,07,25,07,29,12.60
2007,07,25,07,30,12.70
2007,07,25,07,31,12.80
2007,07,25,07,32,13.00
2007,07,25,07,33,13.10
2007,07,25,07,34,13.20
2007,07,25,07,35,13.30
2007,07,25,07,36,13.40
2007,07,25,07,37,13.50
2007,07,25,07,38,13.60
2007,07,25,07,39,13.60
2007,07,25,07,40,13.70
2007,07,25,07,41,13.80
2007,07,25,07,42,13.80
2007,07,25,07,43,13.90
2007,07,25,07,44,13.90
2007,07,25,07,45,14.00
2007,07,25,07,46,14.10
2007,07,25,07,47,14.20
2007,07,25,07,48,14.40
2007,07,25,07,49,14.50
2007,07,25,07,50,14.60
2007,07,25,07,51,14.80
2007,07,25,07,52,15.00
2007,07,25,07,53,15.00
2007,07,25,07,54,15.10
2007,07,25,07,55,15.30
2007,07,25,07,56,15.40
2007,07,25,07,57,15.50
2007,07,25,07,58,15.60
2007,07,25,07,59,15.70
2007,07,25,08,00,15.80
2007,07,25,08,01,15.90
2007,07,25,08,02,16.00
2007,07,25,08,03,16.00
2007,07,25,08,04,16.10
2007,07,25,08,05,16.20
2007,07,25,08,06,16.30
2007,07,25,08,07,16.30
2007,07,25,08,08,16.40
2007,07,25,08,09,16.40
2007,07,25,08,10,16.50
2007,07,25,08,11,16.60
2007,07,25,08,12,16.70
2007,07,25,08,13,16.70
2007,07,25,08,14,16.80
2007,07,25,08,15,16.80
2007,07,25,08,16,16.90
2007,07,25,08,17,17.00
2007,07,25,08,18,17.00
2007,07,25,08,19,17.10
2007,07,25,08,20,17.20
2007,07,25,08,21,17.40
2007,07,25,08,22,17.50
2007,07,25,08,23,17.60
2007,07,25,08,24,17.70
2007,07,25,08,25,17.80
2007,07,25,08,26,17.80
2007,07,25,08,27,17.90
2007,07,25,08,28,17.90
2007,07,25,08,29,17.90
2007,07,25,08,30,18.00
2007,07,25,08,31,18.00
2007,07,25,08,32,18.10
2007,07,25,08,33,18.10
2007,07,25,08,34,18.10
2007,07,25,08,35,18.20
2007,07,25,08,36,18.20
2007,07,25,08,37,18.20
2007,07,25,08,38,18.30
2007,07,25,08,39,18.40
2007,07,25,08,40,18.50
2007,07,25,08,41,18.60
2007,07,25,08,42,18.60
2007,07,25,08,43,18.70
2007,07,25,08,44,18.80
2007,07,25,08,45,18.80
2007,07,25,08,46,18.80
2007,07,25,08,47,18.90
2007,07,25,08,48,19.00
2007,07,25,08,49,19.10
2007,07,25,08,50,19.10
2007,07,25,08,51,19.20
2007,07,25,08,52,19.20
2007,07,25,08,53,19.20
2007,07,25,08,54,19.20
2007,07,25,08,55,19.20
2007,07,25,08,56,19.20
2007,07,25,08,57,19.30
2007,07,25,08,58,19.30
2007,07,25,08,59,19.30
2007,07,25,09,00,19.30
2007,07,25,09,01,19.40
2007,07,25,09,02,19.40
2007,07,25,09,03,19.40
2007,07,25,09,04,19.40
2007,07,25,09,05,19.40
2007,07,25,09,06,19.40
2007,07,25,09,07,19.40
2007,07,25,09,08,19.40
2007,07,25,09,09,19.40
2007,07,25,09,10,19.50
2007,07,25,09,11,19.50
2007,07,25,09,12,19.50
2007,07,25,09,13,19.50
2007,07,25,09,14,19.60
2007,07,25,09,15,19.60
2007,07,25,09,16,19.70
2007,07,25,09,17,19.70
2007,07,25,09,18,19.80
2007,07,25,09,19,19.80
2007,07,25,09,20,19.90
2007,07,25,09,21,20.00
2007,07,25,09,22,20.10
2007,07,25,09,23,20.10
2007,07,25,09,24,20.20
2007,07,25,09,25,20.20
2007,07,25,09,26,20.20
2007,07,25,09,27,20.20
2007,07,25,09,28,20.10
2007,07,25,09,29,20.00
2007,07,25,09,30,20.00
2007,07,25,09,31,20.00
2007,07,25,09,32,20.00
2007,07,25,09,33,20.00
2007,07,25,09,34,20.10
2007,07,25,09,35,20.10
2007,07,25,09,36,20.20
2007,07,25,09,37,20.20
2007,07,25,09,38,20.30
2007,07,25,09,39,20.40
2007,07,25,09,40,20.40
2007,07,25,09,41,20.50
2007,07,25,09,42,20.50
2007,07,25,09,43,20.40
2007,07,25,09,44,20.30
2007,07,25,09,45,20.20
2007,07,25,09,46,20.20
2007,07,25,09,47,20.20
2007,07,25,09,48,20.30
2007,07,25,09,49,20.30
2007,07,25,09,50,20.30
2007,07,25,09,51,20.40
2007,07,25,09,52,20.50
2007,07,25,09,53,20.40
2007,07,25,09,54,20.40
2007,07,25,09,55,20.30
2007,07,25,09,56,20.20
2007,07,25,09,57,20.30
2007,07,25,09,58,20.30
2007,07,25,09,59,20.30
2007,07,25,10,00,20.30
2007,07,25,10,01,20.40
2007,07,25,10,02,20.40
2007,07,25,10,03,20.40
2007,07,25,10,04,20.40
2007,07,25,10,05,20.40
2007,07,25,10,06,20.40
2007,07,25,10,07,20.30
2007,07,25,10,08,20.30
2007,07,25,10,09,20.20
2007,07,25,10,10,20.10
2007,07,25,10,11,20.10
2007,07,25,10,12,20.20
2007,07,25,10,13,20.20
2007,07,25,10,14,20.40
2007,07,25,10,15,20.50
2007,07,25,10,16,20.60
2007,07,25,10,17,20.60
2007,07,25,10,18,20.70
2007,07,25,10,19,20.80
2007,07,25,10,20,20.90
2007,07,25,10,21,21.00
2007,07,25,10,22,21.00
2007,07,25,10,23,21.00
2007,07,25,10,24,20.90
2007,07,25,10,25,20.90
2007,07,25,10,26,20.90
2007,07,25,10,27,20.90
2007,07,25,10,28,21.00
2007,07,25,10,29,20.90
2007,07,25,10,30,21.00
2007,07,25,10,31,20.90
2007,07,25,10,32,20.90
2007,07,25,10,33,20.90
2007,07,25,10,34,20.90
2007,07,25,10,35,21.00
2007,07,25,10,36,21.00
2007,07,25,10,37,21.00
2007,07,25,10,38,21.00
2007,07,25,10,39,21.10
2007,07,25,10,40,21.10
2007,07,25,10,41,21.10
2007,07,25,10,42,21.20
2007,07,25,10,43,21.20
2007,07,25,10,44,21.30
2007,07,25,10,45,21.30
2007,07,25,10,46,21.30
2007,07,25,10,47,21.30
2007,07,25,10,48,21.30
2007,07,25,10,49,21.30
2007,07,25,10,50,21.30
2007,07,25,10,51,21.40
2007,07,25,10,52,21.50
2007,07,25,10,53,21.60
2007,07,25,10,54,21.70
2007,07,25,10,55,21.70
2007,07,25,10,56,21.80
2007,07,25,10,57,21.80
2007,07,25,10,58,21.80
2007,07,25,10,59,21.80
2007,07,25,11,00,21.70
2007,07,25,11,01,21.70
2007,07,25,11,02,21.70
2007,07,25,11,03,21.80
2007,07,25,11,04,21.80
2007,07,25,11,05,21.90
2007,07,25,11,06,22.00
2007,07,25,11,07,22.10
2007,07,25,11,08,22.20
2007,07,25,11,09,22.00
2007,07,25,11,10,21.80
2007,07,25,11,11,21.60
2007,07,25,11,12,21.40
2007,07,25,11,13,21.20
2007,07,25,11,14,21.20
2007,07,25,11,15,21.10
2007,07,25,11,16,21.20
2007,07,25,11,17,21.20
2007,07,25,11,18,21.30
2007,07,25,11,19,21.30
2007,07,25,11,20,21.40
2007,07,25,11,21,21.40
2007,07,25,11,22,21.50
2007,07,25,11,23,21.50
2007,07,25,11,24,21.60
2007,07,25,11,25,21.60
2007,07,25,11,26,21.70
2007,07,25,11,27,21.70
2007,07,25,11,28,21.70
2007,07,25,11,29,21.60
2007,07,25,11,30,21.70
2007,07,25,11,31,21.80
2007,07,25,11,32,21.70
2007,07,25,11,33,21.70
2007,07,25,11,34,21.60
2007,07,25,11,35,21.50
2007,07,25,11,36,21.50
2007,07,25,11,37,21.40
2007,07,25,11,38,21.40
2007,07,25,11,39,21.40
2007,07,25,11,40,21.40
2007,07,25,11,41,21.30
2007,07,25,11,42,21.20
2007,07,25,11,43,21.30
2007,07,25,11,44,21.40
2007,07,25,11,45,21.50
2007,07,25,11,46,21.50
2007,07,25,11,47,21.40
2007,07,25,11,48,21.20
2007,07,25,11,49,21.10
2007,07,25,11,50,21.10
2007,07,25,11,51,21.10
2007,07,25,11,52,21.10
2007,07,25,11,53,21.10
2007,07,25,11,54,21.00
2007,07,25,11,55,21.00
2007,07,25,11,56,20.90
2007,07,25,11,57,20.80
2007,07,25,11,58,20.70
2007,07,25,11,59,20.70
2007,07,25,12,00,20.80
2007,07,25,12,01,20.80
2007,07,25,12,02,20.80
2007,07,25,12,03,20.90
2007,07,25,12,04,21.00
2007,07,25,12,05,21.00
2007,07,25,12,06,20.90
2007,07,25,12,07,20.80
2007,07,25,12,08,20.70
2007,07,25,12,09,20.60
2007,07,25,12,10,20.50
2007,07,25,12,11,20.50
2007,07,25,12,12,20.40
2007,07,25,12,13,20.40
2007,07,25,12,14,20.40
2007,07,25,12,15,20.40
2007,07,25,12,16,20.40
2007,07,25,12,17,20.40
2007,07,25,12,18,20.50
2007,07,25,12,19,20.70
2007,07,25,12,20,20.80
2007,07,25,12,21,20.90
2007,07,25,12,22,21.00
2007,07,25,12,23,21.10
2007,07,25,12,24,21.30
2007,07,25,12,25,21.40
2007,07,25,12,26,21.50
2007,07,25,12,27,21.50
2007,07,25,12,28,21.60
2007,07,25,12,29,21.60
2007,07,25,12,30,21.40
2007,07,25,12,31,21.30
2007,07,25,12,32,21.30
2007,07,25,12,33,21.30
2007,07,25,12,34,21.30
2007,07,25,12,35,21.40
2007,07,25,12,36,21.50
2007,07,25,12,37,21.60
2007,07,25,12,38,21.80
2007,07,25,12,39,21.80
2007,07,25,12,40,21.70
2007,07,25,12,41,21.60
2007,07,25,12,42,21.70
2007,07,25,12,43,21.70
2007,07,25,12,44,21.70
2007,07,25,12,45,21.70
2007,07,25,12,46,21.80
2007,07,25,12,47,21.70
2007,07,25,12,48,21.70
2007,07,25,12,49,21.60
2007,07,25,12,50,21.70
2007,07,25,12,51,21.60
2007,07,25,12,52,21.70
2007,07,25,12,53,21.60
2007,07,25,12,54,21.60
2007,07,25,12,55,21.70
2007,07,25,12,56,21.80
2007,07,25,12,57,21.80
2007,07,25,12,58,21.90
2007,07,25,12,59,21.80
2007,07,25,13,00,21.90
2007,07,25,13,01,21.90
2007,07,25,13,02,21.90
2007,07,25,13,03,21.90
2007,07,25,13,04,21.80
2007,07,25,13,05,21.70
2007,07,25,13,06,21.60
2007,07,25,13,07,21.60
2007,07,25,13,08,21.60
2007,07,25,13,09,21.60
2007,07,25,13,10,21.60
2007,07,25,13,11,21.70
2007,07,25,13,12,21.70
2007,07,25,13,13,21.90
2007,07,25,13,14,22.10
2007,07,25,13,15,22.30
2007,07,25,13,16,22.40
2007,07,25,13,17,22.50
2007,07,25,13,18,22.50
2007,07,25,13,19,22.50
2007,07,25,13,20,22.30
2007,07,25,13,21,22.10
2007,07,25,13,22,22.00
2007,07,25,13,23,21.90
2007,07,25,13,24,21.90
2007,07,25,13,25,22.00
2007,07,25,13,26,22.10
2007,07,25,13,27,22.00
2007,07,25,13,28,22.00
2007,07,25,13,29,22.10
2007,07,25,13,30,22.20
2007,07,25,13,31,22.20
2007,07,25,13,32,22.10
2007,07,25,13,33,22.10
2007,07,25,13,34,22.20
2007,07,25,13,35,22.20
2007,07,25,13,36,22.20
2007,07,25,13,37,22.20
2007,07,25,13,38,22.20
2007,07,25,13,39,22.40
2007,07,25,13,40,22.60
2007,07,25,13,41,22.80
2007,07,25,13,42,22.90
2007,07,25,13,43,22.90
2007,07,25,13,44,22.80
2007,07,25,13,45,22.60
2007,07,25,13,46,22.40
2007,07,25,13,47,22.30
2007,07,25,13,48,22.20
2007,07,25,13,49,22.20
2007,07,25,13,50,22.10
2007,07,25,13,51,22.20
2007,07,25,13,52,22.30
2007,07,25,13,53,22.40
2007,07,25,13,54,22.40
2007,07,25,13,55,22.50
2007,07,25,13,56,22.60
2007,07,25,13,57,22.70
2007,07,25,13,58,22.80
2007,07,25,13,59,22.90
2007,07,25,14,00,22.90
2007,07,25,14,01,23.10
2007,07,25,14,02,23.10
2007,07,25,14,03,23.00
2007,07,25,14,04,22.90
2007,07,25,14,05,22.90
2007,07,25,14,06,22.90
2007,07,25,14,07,22.80
2007,07,25,14,08,22.70
2007,07,25,14,09,22.70
2007,07,25,14,10,22.70
2007,07,25,14,11,22.70
2007,07,25,14,12,22.80
2007,07,25,14,13,22.80
2007,07,25,14,14,22.80
2007,07,25,14,15,22.90
2007,07,25,14,16,22.90
2007,07,25,14,17,23.10
2007,07,25,14,18,23.20
2007,07,25,14,19,23.20
2007,07,25,14,20,23.20
2007,07,25,14,21,23.20
2007,07,25,14,22,23.20
2007,07,25,14,23,23.20
2007,07,25,14,24,23.00
2007,07,25,14,25,23.00
2007,07,25,14,26,23.00
2007,07,25,14,27,23.00
2007,07,25,14,28,23.00
2007,07,25,14,29,23.10
2007,07,25,14,30,23.30
2007,07,25,14,31,23.40
2007,07,25,14,32,23.40
2007,07,25,14,33,23.20
2007,07,25,14,34,23.00
2007,07,25,14,35,23.00
2007,07,25,14,36,23.10
2007,07,25,14,37,23.20
2007,07,25,14,38,23.10
2007,07,25,14,39,23.10
2007,07,25,14,40,23.10
2007,07,25,14,41,23.20
2007,07,25,14,42,23.30
2007,07,25,14,43,23.50
2007,07,25,14,44,23.70
2007,07,25,14,45,23.90
2007,07,25,14,46,24.00
2007,07,25,14,47,23.90
2007,07,25,14,48,24.00
2007,07,25,14,49,24.00
2007,07,25,14,50,24.10
2007,07,25,14,51,24.10
2007,07,25,14,52,24.10
2007,07,25,14,53,24.10
2007,07,25,14,54,24.20
2007,07,25,14,55,24.20
2007,07,25,14,56,24.20
2007,07,25,14,57,24.20
2007,07,25,14,58,24.10
2007,07,25,14,59,23.90
2007,07,25,15,00,23.80
2007,07,25,15,01,23.70
2007,07,25,15,02,23.70
2007,07,25,15,03,23.80
2007,07,25,15,04,23.70
2007,07,25,15,05,23.50
2007,07,25,15,06,23.50
2007,07,25,15,07,23.50
2007,07,25,15,08,23.40
2007,07,25,15,09,23.40
2007,07,25,15,10,23.30
2007,07,25,15,11,23.30
2007,07,25,15,12,23.20
2007,07,25,15,13,23.20
2007,07,25,15,14,23.20
2007,07,25,15,15,23.20
2007,07,25,15,16,23.40
2007,07,25,15,17,23.50
2007,07,25,15,18,23.60
2007,07,25,15,19,23.50
2007,07,25,15,20,23.50
2007,07,25,15,21,23.60
2007,07,25,15,22,23.60
2007,07,25,15,23,23.80
2007,07,25,15,24,23.80
2007,07,25,15,25,23.90
2007,07,25,15,26,23.90
2007,07,25,15,27,24.00
2007,07,25,15,28,24.00
2007,07,25,15,29,23.80
2007,07,25,15,30,23.80
2007,07,25,15,31,23.80
2007,07,25,15,32,23.90
2007,07,25,15,33,23.90
2007,07,25,15,34,23.80
2007,07,25,15,35,23.80
2007,07,25,15,36,23.70
2007,07,25,15,37,23.60
2007,07,25,15,38,23.50
2007,07,25,15,39,23.40
2007,07,25,15,40,23.40
2007,07,25,15,41,23.40
2007,07,25,15,42,23.40
2007,07,25,15,43,23.50
2007,07,25,15,44,23.50
2007,07,25,15,45,23.40
2007,07,25,15,46,23.30
2007,07,25,15,47,23.30
2007,07,25,15,48,23.30
2007,07,25,15,49,23.30
2007,07,25,15,50,23.40
2007,07,25,15,51,23.50
2007,07,25,15,52,23.60
2007,07,25,15,53,23.60
2007,07,25,15,54,23.70
2007,07,25,15,55,23.80
2007,07,25,15,56,23.90
2007,07,25,15,57,23.90
2007,07,25,15,58,23.90
2007,07,25,15,59,23.90
2007,07,25,16,00,24.00
2007,07,25,16,01,24.10
2007,07,25,16,02,24.10
2007,07,25,16,03,24.10
2007,07,25,16,04,24.20
2007,07,25,16,05,24.20
2007,07,25,16,06,24.20
2007,07,25,16,07,24.30
2007,07,25,16,08,24.40
2007,07,25,16,09,24.40
2007,07,25,16,10,24.50
2007,07,25,16,11,24.60
2007,07,25,16,12,24.50
2007,07,25,16,13,24.50
2007,07,25,16,14,24.50
2007,07,25,16,15,24.50
2007,07,25,16,16,24.50
2007,07,25,16,17,24.50
2007,07,25,16,18,24.60
2007,07,25,16,19,24.50
2007,07,25,16,20,24.50
2007,07,25,16,21,24.50
2007,07,25,16,22,24.60
2007,07,25,16,23,24.70
2007,07,25,16,24,24.70
2007,07,25,16,25,24.70
2007,07,25,16,26,24.70
2007,07,25,16,27,24.70
2007,07,25,16,28,24.70
2007,07,25,16,29,24.80
2007,07,25,16,30,24.80
2007,07,25,16,31,24.90
2007,07,25,16,32,24.90
2007,07,25,16,33,24.90
2007,07,25,16,34,24.80
2007,07,25,16,35,24.70
2007,07,25,16,36,24.60
2007,07,25,16,37,24.60
2007,07,25,16,38,24.60
2007,07,25,16,39,24.60
2007,07,25,16,40,24.60
2007,07,25,16,41,24.60
2007,07,25,16,42,24.60
2007,07,25,16,43,24.60
2007,07,25,16,44,24.60
2007,07,25,16,45,24.60
2007,07,25,16,46,24.70
2007,07,25,16,47,24.70
2007,07,25,16,48,24.70
2007,07,25,16,49,24.70
2007,07,25,16,50,24.80
2007,07,25,16,51,24.80
2007,07,25,16,52,24.80
2007,07,25,16,53,24.80
2007,07,25,16,54,24.80
2007,07,25,16,55,24.80
2007,07,25,16,56,24.70
2007,07,25,16,57,24.60
2007,07,25,16,58,24.50
2007,07,25,16,59,24.40
2007,07,25,17,00,24.40
2007,07,25,17,01,24.40
2007,07,25,17,02,24.30
2007,07,25,17,03,24.30
2007,07,25,17,04,24.50
2007,07,25,17,05,24.50
2007,07,25,17,06,24.50
2007,07,25,17,07,24.50
2007,07,25,17,08,24.40
2007,07,25,17,09,24.40
2007,07,25,17,10,24.30
2007,07,25,17,11,24.30
2007,07,25,17,12,24.30
2007,07,25,17,13,24.30
2007,07,25,17,14,24.40
2007,07,25,17,15,24.40
2007,07,25,17,16,24.50
2007,07,25,17,17,24.50
2007,07,25,17,18,24.60
2007,07,25,17,19,24.50
2007,07,25,17,20,24.50
2007,07,25,17,21,24.50
2007,07,25,17,22,24.50
2007,07,25,17,23,24.40
2007,07,25,17,24,24.40
2007,07,25,17,25,24.50
2007,07,25,17,26,24.50
2007,07,25,17,27,24.60
2007,07,25,17,28,24.60
2007,07,25,17,29,24.70
2007,07,25,17,30,24.80
2007,07,25,17,31,24.70
2007,07,25,17,32,24.70
2007,07,25,17,33,24.70
2007,07,25,17,34,24.60
2007,07,25,17,35,24.60
2007,07,25,17,36,24.60
2007,07,25,17,37,24.70
2007,07,25,17,38,24.60
2007,07,25,17,39,24.50
2007,07,25,17,40,24.40
2007,07,25,17,41,24.40
2007,07,25,17,42,24.30
2007,07,25,17,43,24.30
2007,07,25,17,44,24.40
2007,07,25,17,45,24.40
2007,07,25,17,46,24.40
2007,07,25,17,47,24.30
2007,07,25,17,48,24.30
2007,07,25,17,49,24.40
2007,07,25,17,50,24.50
2007,07,25,17,51,24.60
2007,07,25,17,52,24.60
2007,07,25,17,53,24.50
2007,07,25,17,54,24.40
2007,07,25,17,55,24.20
2007,07,25,17,56,24.10
2007,07,25,17,57,24.00
2007,07,25,17,58,23.90
2007,07,25,17,59,23.90
2007,07,25,18,00,23.90
2007,07,25,18,01,23.90
2007,07,25,18,02,24.00
2007,07,25,18,03,24.10
2007,07,25,18,04,24.10
2007,07,25,18,05,24.10
2007,07,25,18,06,24.10
2007,07,25,18,07,24.10
2007,07,25,18,08,24.10